星链-4757 (STARLINK-4757 )

导读

STARLINK-4757是美国太空探索技术公司SpaceX星链星座的卫星,于2022年9月19日发射升空,属于星链互联网卫星群组,承担为全球提供低延迟、高速宽带互联网服务的任务。该卫星运行在近地轨道,依托星链组网架构,是美国大规模部署低轨卫星互联网星座进程中的组成单元。

基本信息
目录编号:
53824
目录名称:
STARLINK-4757
国际标识:
2022-114G
轨道中心:
EARTH
卫星名称:
星链-4757
卫星全名:
星链-4757 (STARLINK-4757 )
卫星状态:
在轨 (已飞行1367 天)
发射日期:
2022-09-19 UTC
国别 :
美国 (US)
星等 :
--
轨道信息
数据来源 国际轨道数据 AOE轨道数据
星历时间 2026-06-17T05:00:47+0800
11小时前
查看轨道信息
2026-06-16T04:00:00+0800
1天前
查看轨道信息
半长轴 6917.898km 6917.896km
偏心率 0.0001306 0.0001279
轨道倾角 53.159° 53.156°
近地点辐角 73.674° 77.961°
升交点赤经 218.170° 222.856°
平近点角 286.439° 17.978°
近地点 538.857km 538.874km
远地点 540.665km 540.644km
周期 95.438分钟 95.438分钟
每日圈数 15.088343 15.088351
详细信息
固有亮度:
5
最大亮度:
2.5
卫星平台:
Starlink v1.5
覆盖范围:
全球
运营商:
太空探索技术公司
运营商所在国:
美国
制造商(研发单位):
太空探索技术公司
制造商所在国:
美国
使用方式:
暂无
卫星简介
星链(Starlink)计划是由太空探索技术公司(SpaceX)提出的一个巨型低轨卫星互联网星座项目,计划在2019年至2024年间在太空搭建由约1.2万颗卫星组成的“星链”网络,其中1584颗将部署在地球上空550千米处的近地轨道,并从2020年开始工作。该卫星仍在工作。
2D轨道图
3D轨道图
轨道高度分析图
轨道倾角分析图
轨道综合分析图
查看轨道综合分析图